User: anonymous   Login
Location: Unspecified
(33.2407°S, 0.0000°E)
Time: 11:08:54
(UTC+00:00)
Language:

CAS-4A - Orbit

View from above orbital plane
View from above orbital plane
View from above satellite
View from above satellite

Ground track
Ground track

The orbit data is extracted from the following two-line orbital elements,

1 42761U 17034D   19197.16554881  .00000060  00000-0  17183-4 0  9990
2 42761  43.0194  79.4028 0010903  59.3961  76.5332 15.09675038114982
Epoch (UTC): 16 July 2019 03:58:23
Eccentricity: 0.0010903
inclination: 43.0194°
perigee height: 529 km
apogee height: 545 km
right ascension of ascending node: 79.4028°
argument of perigee: 59.3961°
revolutions per day: 15.09675038
mean anomaly at epoch: 76.5332°
orbit number at epoch: 11498

The dashed part of the orbit path shows where the satellite is in the earth's shadow,  

DLR